SEDRO WOOLLEY WA US current weather conditions

sailwx.info

Wind from 126 at 6 knots gusting 15

Air temperature 7.8° C
Dewpoint 7.8° C

Last reported at 2020-Jan-23 13:42 UTC.
Time now 2020-Jan-23 14:40 UTC

Location: N 48°31' W 122°13'.
View on Google Maps.

See reports from other nearby stations

  
Tides and Currents Weather Stations Pressure Air Temp Water Temp Dewpoint Dewpoint Depression Visibility Wind Speed Wind Dir Waves Ship Positions
date/time (UTC)wind fromknots sea level pressurealtimeterstation pressurevisibilityair tempwater tempwave heightnotes
2020-Jan-23 13:42 126 6 gusting 15 7.8
2020-Jan-23 12:42 135 5 gusting 12 7.2
2020-Jan-23 11:42 132 6 gusting 14 7.2
2020-Jan-23 10:42 136 6 gusting 17 6.7
2020-Jan-23 09:42 135 7 gusting 16 6.1
2020-Jan-23 08:42 134 6 gusting 17 6.1
2020-Jan-23 07:42 135 8 gusting 17 6.1
2020-Jan-23 06:42 145 8 gusting 22 6.1
2020-Jan-23 05:42 132 9 gusting 21 5.6
2020-Jan-23 04:42 136 9 gusting 19 5.0
2020-Jan-23 03:42 154 6 gusting 22 5.0
2020-Jan-23 02:42 128 9 gusting 23 5.0
2020-Jan-23 01:42 152 6 gusting 16 5.0
2020-Jan-23 00:42 153 6 gusting 13 5.0
2020-Jan-22 23:42 141 6 gusting 16 5.6
2020-Jan-22 22:42 135 5 gusting 12 5.6
2020-Jan-22 21:42 149 5 gusting 13 5.6
2020-Jan-22 20:42 142 5 gusting 16 5.6
2020-Jan-22 19:42 152 3 gusting 7 5.6
2020-Jan-22 18:42 138 3 gusting 13 5.6
2020-Jan-22 17:42 151 3 gusting 10 5.6
2020-Jan-22 16:42 149 4 gusting 10 5.6
2020-Jan-22 15:42 144 4 gusting 10 5.6
2020-Jan-22 14:42 152 4 gusting 9 6.1
2020-Jan-22 13:42 136 4 gusting 14 7.2
2020-Jan-22 12:42 191 5 gusting 17 7.8
2020-Jan-22 11:42 178 6 gusting 16 7.2
2020-Jan-22 10:42 181 5 gusting 18 7.8
2020-Jan-22 09:42 182 5 gusting 19 7.8
2020-Jan-22 08:42 179 6 gusting 18 7.8
2020-Jan-22 07:42 182 7 gusting 15 7.8
2020-Jan-22 06:42 149 4 gusting 19 6.7
2020-Jan-22 05:42 159 7 gusting 16 7.2
2020-Jan-22 04:42 169 8 gusting 19 7.2
2020-Jan-22 03:42 168 9 gusting 19 7.2
2020-Jan-22 02:42 170 7 gusting 26 7.2
2020-Jan-22 01:42 161 7 gusting 20 8.3
2020-Jan-22 00:42 161 8 gusting 23 8.3
2020-Jan-21 23:42 150 6 gusting 21 7.8
2020-Jan-21 22:42 155 5 gusting 14 8.3
2020-Jan-21 21:42 143 5 gusting 11 8.3
2020-Jan-21 20:42 151 6 gusting 13 8.9
2020-Jan-21 19:42 150 6 gusting 17 8.9
2020-Jan-21 18:42 144 6 gusting 14 10.6
2020-Jan-21 17:42 154 6 gusting 19 10.6
2020-Jan-21 16:42 154 11 gusting 26 9.4
2020-Jan-21 15:42 160 8 gusting 26 8.9
2020-Jan-21 14:42 154 6 gusting 16 8.3